Location: Observatory
(52.1446°N, 0.4624°W)
Time: 22:37:06
(UTC+00:00)

ISS - Pass Details

Date: 06 January 2018
Orbit: 402 x 407 km, 51.6° (Epoch: 22 January)

Event Time Altitude Azimuth Distance (km) Brightness Sun altitude
Exits shadow 07:18:46 - 277° (W) 1,580 -1.4 -7.4°
Reaches altitude 10° 07:19:02 10° 276° (W) 1,470 -1.6 -7.4°
Maximum altitude 07:22:17 59° 197° (SSW) 475 -3.4 -6.9°
Drops below altitude 10° 07:25:32 10° 116° (ESE) 1,469 0.9 -6.5°
Sets 07:27:38 0° 113° (ESE) 2,329 2.6 -6.2°
